Time,TemperatureF,DewpointF,PressureIn,WindDirection,WindDirectionDegrees,WindSpeedMPH,WindSpeedGustMPH,Humidity,HourlyPrecipIn,Conditions,Clouds,dailyrainin,SoftwareType,DateUTC
2013-06-25 00:01:00,78.0,64.0,-100.00,SSE,152,6.0,9.0,63,0.00,,,0.00,,2013-06-25 05:01:00,
2013-06-25 00:11:00,79.0,65.0,-100.00,SSE,152,9.0,9.0,63,0.00,,,0.00,,2013-06-25 05:11:00,
2013-06-25 00:22:00,80.0,66.0,-100.00,SSE,156,7.0,7.0,62,0.00,,,0.00,,2013-06-25 05:22:00,
2013-06-25 00:32:00,80.0,66.0,-100.00,SSE,156,5.0,6.0,63,0.00,,,0.00,,2013-06-25 05:32:00,
2013-06-25 00:44:00,79.0,66.0,-100.00,ESE,122,8.0,10.0,65,0.00,,,0.00,,2013-06-25 05:44:00,
2013-06-25 00:52:00,80.0,68.0,-100.00,SE,124,9.0,13.0,68,0.00,,,0.00,,2013-06-25 05:52:00,
2013-06-25 01:01:00,80.0,68.0,-100.00,SSE,149,10.0,12.0,68,0.00,,,0.00,,2013-06-25 06:01:00,
2013-06-25 01:11:00,80.0,69.0,-100.00,SSE,159,7.0,10.0,69,0.00,,,0.00,,2013-06-25 06:11:00,
2013-06-25 01:21:00,80.0,69.0,-100.00,SE,143,9.0,11.0,70,0.00,,,0.00,,2013-06-25 06:21:00,
2013-06-25 01:33:00,80.0,70.0,-100.00,SSE,150,11.0,11.0,71,0.00,,,0.00,,2013-06-25 06:33:00,
2013-06-25 01:43:00,80.0,70.0,-100.00,SSE,152,14.0,14.0,72,0.00,,,0.00,,2013-06-25 06:43:00,
2013-06-25 02:02:00,79.0,70.0,-100.00,SE,135,11.0,11.0,74,0.00,,,0.00,,2013-06-25 07:02:00,
2013-06-25 02:11:00,79.0,70.0,-100.00,SSE,149,9.0,9.0,74,0.00,,,0.00,,2013-06-25 07:11:00,
2013-06-25 02:33:00,79.0,71.0,-100.00,SE,129,10.0,11.0,76,0.00,,,0.00,,2013-06-25 07:33:00,
2013-06-25 02:43:00,79.0,71.0,-100.00,SE,143,10.0,10.0,77,0.00,,,0.00,,2013-06-25 07:43:00,
2013-06-25 03:01:00,78.0,71.0,-100.00,ESE,118,10.0,13.0,79,0.00,,,0.00,,2013-06-25 08:01:00,
2013-06-25 03:11:00,78.0,71.0,-100.00,SSE,160,9.0,13.0,80,0.00,,,0.00,,2013-06-25 08:11:00,
2013-06-25 03:21:00,78.0,71.0,-100.00,SE,127,11.0,11.0,80,0.00,,,0.00,,2013-06-25 08:21:00,
2013-06-25 03:34:00,77.0,71.0,-100.00,SE,129,8.0,8.0,81,0.00,,,0.00,,2013-06-25 08:34:00,
2013-06-25 03:43:00,77.0,71.0,-100.00,SE,138,10.0,10.0,82,0.00,,,0.00,,2013-06-25 08:43:00,
2013-06-25 03:52:00,77.0,71.0,-100.00,ESE,122,11.0,11.0,83,0.00,,,0.00,,2013-06-25 08:52:00,
2013-06-25 04:02:00,77.0,71.0,-100.00,SSE,156,11.0,12.0,83,0.00,,,0.00,,2013-06-25 09:02:00,
2013-06-25 04:12:00,76.0,71.0,-100.00,SSE,150,12.0,15.0,84,0.00,,,0.00,,2013-06-25 09:12:00,
2013-06-25 04:21:00,76.0,71.0,-100.00,SSE,149,11.0,12.0,85,0.00,,,0.00,,2013-06-25 09:21:00,
2013-06-25 04:33:00,76.0,71.0,-100.00,South,173,10.0,12.0,85,0.00,,,0.00,,2013-06-25 09:33:00,
2013-06-25 04:43:00,76.0,72.0,-100.00,SSE,163,12.0,12.0,86,0.00,,,0.00,,2013-06-25 09:43:00,
2013-06-25 04:52:00,76.0,72.0,-100.00,South,176,14.0,14.0,86,0.00,,,0.00,,2013-06-25 09:52:00,
2013-06-25 05:01:00,76.0,72.0,-100.00,SE,134,15.0,15.0,86,0.00,,,0.00,,2013-06-25 10:01:00,
2013-06-25 05:11:00,75.0,71.0,-100.00,South,173,13.0,13.0,86,0.00,,,0.00,,2013-06-25 10:11:00,
2013-06-25 05:21:00,75.0,71.0,-100.00,SSE,163,10.0,10.0,86,0.00,,,0.00,,2013-06-25 10:21:00,
2013-06-25 05:33:00,76.0,72.0,-100.00,SSE,159,8.0,8.0,86,0.00,,,0.00,,2013-06-25 10:33:00,
2013-06-25 05:42:00,76.0,72.0,-100.00,South,180,10.0,10.0,86,0.00,,,0.00,,2013-06-25 10:42:00,
2013-06-25 05:52:00,75.0,71.0,-100.00,SSE,163,10.0,13.0,86,0.00,,,0.00,,2013-06-25 10:52:00,
2013-06-25 06:02:00,76.0,72.0,-100.00,South,181,10.0,11.0,86,0.00,,,0.00,,2013-06-25 11:02:00,
2013-06-25 06:11:00,76.0,72.0,-100.00,SSE,153,9.0,12.0,86,0.00,,,0.00,,2013-06-25 11:11:00,
2013-06-25 06:22:00,76.0,72.0,-100.00,SSW,193,6.0,9.0,86,0.00,,,0.00,,2013-06-25 11:22:00,
2013-06-25 06:34:00,75.0,71.0,-100.00,South,173,7.0,9.0,86,0.00,,,0.00,,2013-06-25 11:34:00,
2013-06-25 06:43:00,76.0,72.0,-100.00,SSE,149,9.0,9.0,87,0.00,,,0.00,,2013-06-25 11:43:00,
2013-06-25 06:52:00,76.0,72.0,-100.00,South,181,8.0,8.0,86,0.00,,,0.00,,2013-06-25 11:52:00,
2013-06-25 07:01:00,76.0,72.0,-100.00,SSE,156,7.0,7.0,86,0.00,,,0.00,,2013-06-25 12:01:00,
2013-06-25 07:11:00,77.0,72.0,-100.00,SSE,150,7.0,7.0,85,0.00,,,0.00,,2013-06-25 12:11:00,
2013-06-25 07:22:00,77.0,72.0,-100.00,SSE,158,7.0,8.0,85,0.00,,,0.00,,2013-06-25 12:22:00,
2013-06-25 07:33:00,77.0,72.0,-100.00,South,172,7.0,7.0,85,0.00,,,0.00,,2013-06-25 12:33:00,
2013-06-25 07:43:00,78.0,73.0,-100.00,South,177,6.0,8.0,84,0.00,,,0.00,,2013-06-25 12:43:00,
2013-06-25 07:55:00,78.0,72.0,-100.00,SSE,167,7.0,7.0,83,0.00,,,0.00,,2013-06-25 12:55:00,
2013-06-25 08:01:00,79.0,73.0,-100.00,South,188,7.0,7.0,82,0.00,,,0.00,,2013-06-25 13:01:00,
2013-06-25 08:11:00,79.0,73.0,-100.00,South,169,7.0,7.0,81,0.00,,,0.00,,2013-06-25 13:11:00,
2013-06-25 08:22:00,80.0,73.0,-100.00,South,170,13.0,13.0,79,0.00,,,0.00,,2013-06-25 13:22:00,
2013-06-25 08:34:00,82.0,73.0,-100.00,South,169,8.0,8.0,75,0.00,,,0.00,,2013-06-25 13:34:00,
2013-06-25 08:42:00,83.0,73.0,-100.00,South,170,7.0,12.0,72,0.00,,,0.00,,2013-06-25 13:42:00,
2013-06-25 08:53:00,83.0,73.0,-100.00,South,170,9.0,9.0,71,0.00,,,0.00,,2013-06-25 13:53:00,
2013-06-25 09:01:00,84.0,73.0,-100.00,SSW,211,9.0,9.0,69,0.00,,,0.00,,2013-06-25 14:01:00,
2013-06-25 09:11:00,85.0,73.0,-100.00,South,173,10.0,11.0,67,0.00,,,0.00,,2013-06-25 14:11:00,
2013-06-25 09:22:00,86.0,73.0,-100.00,SSE,159,7.0,11.0,66,0.00,,,0.00,,2013-06-25 14:22:00,
2013-06-25 18:52:00,104.0,63.0,-100.00,SE,143,13.0,13.0,27,0.00,,,0.00,,2013-06-25 23:52:00,
2013-06-25 19:02:00,103.0,64.0,-100.00,SE,145,12.0,12.0,28,0.00,,,0.00,,2013-06-26 00:02:00,
2013-06-25 19:11:00,103.0,64.0,-100.00,SE,127,10.0,11.0,28,0.00,,,0.00,,2013-06-26 00:11:00,
2013-06-25 19:22:00,101.0,63.0,-100.00,SE,139,14.0,17.0,29,0.00,,,0.00,,2013-06-26 00:22:00,
2013-06-25 19:33:00,100.0,64.0,-100.00,SSW,207,11.0,11.0,31,0.00,,,0.00,,2013-06-26 00:33:00,
2013-06-25 19:42:00,100.0,64.0,-100.00,SE,143,11.0,11.0,31,0.00,,,0.00,,2013-06-26 00:42:00,
2013-06-25 19:52:00,99.0,65.0,-100.00,South,187,13.0,13.0,33,0.00,,,0.00,,2013-06-26 00:52:00,
2013-06-25 20:01:00,98.0,64.0,-100.00,SE,142,12.0,14.0,33,0.00,,,0.00,,2013-06-26 01:01:00,
2013-06-25 20:11:00,97.0,64.0,-100.00,South,184,9.0,9.0,34,0.00,,,0.00,,2013-06-26 01:11:00,
2013-06-25 20:22:00,95.0,65.0,-100.00,SSE,163,10.0,20.0,37,0.00,,,0.00,,2013-06-26 01:22:00,
2013-06-25 20:33:00,93.0,66.0,-100.00,South,184,10.0,10.0,41,0.00,,,0.00,,2013-06-26 01:33:00,
2013-06-25 20:43:00,91.0,65.0,-100.00,SSE,153,12.0,13.0,43,0.00,,,0.00,,2013-06-26 01:43:00,
2013-06-25 20:52:00,90.0,65.0,-100.00,SSE,163,10.0,11.0,44,0.00,,,0.00,,2013-06-26 01:52:00,
2013-06-25 21:02:00,89.0,65.0,-100.00,SE,141,11.0,11.0,45,0.00,,,0.00,,2013-06-26 02:02:00,
2013-06-25 21:11:00,89.0,65.0,-100.00,SSE,156,10.0,11.0,46,0.00,,,0.00,,2013-06-26 02:11:00,
2013-06-25 21:22:00,88.0,65.0,-100.00,South,179,8.0,8.0,47,0.00,,,0.00,,2013-06-26 02:22:00,
2013-06-25 21:34:00,87.0,65.0,-100.00,SSE,149,8.0,8.0,48,0.00,,,0.00,,2013-06-26 02:34:00,
2013-06-25 21:43:00,86.0,65.0,-100.00,SE,143,9.0,10.0,49,0.00,,,0.00,,2013-06-26 02:43:00,
2013-06-25 21:53:00,86.0,65.0,-100.00,SSE,162,8.0,8.0,50,0.00,,,0.00,,2013-06-26 02:53:00,
2013-06-25 22:02:00,85.0,65.0,-100.00,South,183,5.0,5.0,51,0.00,,,0.00,,2013-06-26 03:02:00,
2013-06-25 22:11:00,85.0,65.0,-100.00,South,172,4.0,4.0,52,0.00,,,0.00,,2013-06-26 03:11:00,
2013-06-25 22:22:00,84.0,65.0,-100.00,SSW,200,3.0,3.0,53,0.00,,,0.00,,2013-06-26 03:22:00,
2013-06-25 22:33:00,84.0,66.0,-100.00,SSE,162,3.0,4.0,55,0.00,,,0.00,,2013-06-26 03:33:00,
2013-06-25 22:43:00,83.0,65.0,-100.00,SSE,166,3.0,4.0,55,0.00,,,0.00,,2013-06-26 03:43:00,
2013-06-25 22:52:00,83.0,66.0,-100.00,South,173,2.0,2.0,56,0.00,,,0.00,,2013-06-26 03:52:00,
2013-06-25 23:01:00,82.0,66.0,-100.00,South,173,3.0,3.0,58,0.00,,,0.00,,2013-06-26 04:01:00,
2013-06-25 23:12:00,81.0,65.0,-100.00,SSE,162,4.0,4.0,59,0.00,,,0.00,,2013-06-26 04:12:00,
2013-06-25 23:22:00,81.0,65.0,-100.00,SSE,162,4.0,4.0,59,0.00,,,0.00,,2013-06-26 04:22:00,
2013-06-25 23:33:00,81.0,66.0,-100.00,SSE,167,4.0,4.0,60,0.00,,,0.00,,2013-06-26 04:33:00,
2013-06-25 23:43:00,80.0,65.0,-100.00,South,180,4.0,4.0,61,0.00,,,0.00,,2013-06-26 04:43:00,
2013-06-25 23:53:00,80.0,66.0,-100.00,SSE,159,4.0,4.0,62,0.00,,,0.00,,2013-06-26 04:53:00,